User: anonymous   Login
Location: Bushrod
(6.3500°N, 10.7833°W)
Time: 22:26:07
(UTC+00:00)
Language:

ASTEX 1 - Orbit

View from above orbital plane
View from above orbital plane
View from above satellite
View from above satellite

Ground track
Ground track

The orbit data is extracted from the following two-line orbital elements,

1  5560U 71089A   19318.57229614  .00000081  00000-0  22105-4 0  9992
2  5560  92.7102 127.4096 0014158 299.8527  60.1269 14.48039875528524
Epoch (UTC): 14 November 2019 13:44:06
Eccentricity: 0.0014158
inclination: 92.7102°
perigee height: 722 km
apogee height: 742 km
right ascension of ascending node: 127.4096°
argument of perigee: 299.8527°
revolutions per day: 14.48039875
mean anomaly at epoch: 60.1269°
orbit number at epoch: 52852

The dashed part of the orbit path shows where the satellite is in the earth's shadow,  

DLR